This is the latest recevied weather packets stored in our database for station/object VE8SKI. If no packets are shown the sender has not sent any weather packets the latest 1 day(s).
| Time | Temp. | Humidity | Pressure | Rain* | Wind** | Luminosity | Snow |
|---|---|---|---|---|---|---|---|
| 1778122116 | 7.22° C | 52% | 1010.8 hPa | 0 mm | 0.45 m/s, 118° | - | - |
| 1778121816 | 7.22° C | 52% | 1010.8 hPa | 0 mm | 0.89 m/s, 93° | - | - |
| 1778121516 | 7.22° C | 52% | 1010.7 hPa | 0 mm | 0.45 m/s, 134° | - | - |
| 1778121217 | 6.67° C | 52% | 1010.7 hPa | 0 mm | 1.34 m/s, 103° | - | - |
| 1778120615 | 7.22° C | 51% | 1010.7 hPa | 0 mm | 0.89 m/s, 96° | - | - |
| 1778120316 | 7.22° C | 51% | 1010.7 hPa | 0 mm | 0.45 m/s, 98° | - | - |
| 1778119717 | 7.22° C | 51% | 1010.6 hPa | 0 mm | 0.45 m/s, 180° | - | - |
| 1778119118 | 7.78° C | 50% | 1010.6 hPa | 0 mm | 0.89 m/s, 156° | - | - |
| 1778118816 | 7.78° C | 49% | 1010.6 hPa | 0 mm | 0.45 m/s, 131° | - | - |
| 1778118217 | 7.78° C | 49% | 1010.6 hPa | 0 mm | 0.89 m/s, 131° | - | - |
| 1778117917 | 7.78° C | 49% | 1010.6 hPa | 0 mm | 0.45 m/s, 228° | - | - |
| 1778117617 | 7.78° C | 49% | 1010.5 hPa | 0 mm | 0.45 m/s, 181° | - | - |
| 1778117318 | 7.78° C | 49% | 1010.5 hPa | 0 mm | 1.34 m/s, 179° | - | - |
| 1778117016 | 7.78° C | 49% | 1010.5 hPa | 0 mm | 0.45 m/s, 134° | - | - |
| 1778116716 | 7.78° C | 49% | 1010.4 hPa | 0 mm | 0.89 m/s, 160° | - | - |
| 1778116417 | 7.78° C | 49% | 1010.4 hPa | 0 mm | 1.79 m/s, 194° | - | - |
| 1778116117 | 7.78° C | 48% | 1010.3 hPa | 0 mm | 0.89 m/s, 134° | - | - |
| 1778115518 | 7.78° C | 47% | 1010.3 hPa | 0 mm | 2.24 m/s, 215° | - | - |
| 1778115216 | 8.33° C | 48% | 1010.3 hPa | 0 mm | 0 m/s | - | - |
| 1778114617 | 8.33° C | 46% | 1010.2 hPa | 0 mm | 0.45 m/s, 203° | - | - |
| 1778114317 | 8.33° C | 46% | 1010.2 hPa | 0 mm | 1.79 m/s, 188° | - | - |
| 1778114018 | 8.33° C | 45% | 1010.1 hPa | 0 mm | 2.24 m/s, 176° | - | - |
| 1778113718 | 8.33° C | 44% | 1010.1 hPa | 0 mm | 2.68 m/s, 193° | - | - |
| 1778113416 | 8.33° C | 44% | 1010.1 hPa | 0 mm | 2.68 m/s, 197° | - | - |
| 1778112817 | 8.33° C | 44% | 1010 hPa | 0 mm | 3.58 m/s, 186° | - | - |
* Rain latest hour (hover to see other rain measurements)
** Current wind speed in m/s (hover to see current wind gust speed)